Volver al catálogo

NOAA 16 DEB

ActivoPO
NORAD 42341·DEBRIS·🇺🇸 United States

Lanzado Sep 21, 2000 desde Vandenberg Space Force Base

Loading…

Próximos Pases (próximas 24 horas)

TLE

ActualizadoSource: Space-Track

Época: Sep 13, 2026, 05:32 UTC

1 42341U 00055QH  26256.23063236  .00015586  00000-0  19230-2 0  9992
2 42341  98.7229  56.6089 0022156  76.4500 283.9177 14.82797174553858

Sigue NOAA 16 DEB en tiempo real con AllMySat

Download on the App Store